EW4685 Weather Reports


time (UTC)temp
F
wind
direction
speed
knots
gust
knots
rain 1hr
in
rain 24hr
in
rain mn
in
humidity
%
barometer
mb
20260504000334 59 347 1.7 10.4 0.09 0.71 0.59 95 1014.8
20260503235835 59 18 1.7 7.0 0.09 0.71 0.59 95 1015.1
20260503235334 59 235 0.9 4.3 0.09 0.70 0.58 95 1014.8
20260503234834 59 313 0.9 4.3 0.10 0.70 0.58 95 1015.1
20260503234333 59 56 0.0 1.7 0.10 0.68 0.57 95 1015.2
20260503233832 59 52 0.0 4.3 0.10 0.65 0.54 95 1015.2
20260503233330 59 344 0.9 4.3 0.11 0.65 0.53 95 1015.2
20260503232827 59 64 0.9 7.0 0.13 0.64 0.52 95 1015.1
20260503232326 59 271 1.7 7.0 0.20 0.64 0.52 95 1015.3
20260503231826 59 265 2.6 8.7 0.20 0.63 0.51 95 1015.1
20260503231326 59 296 2.6 9.6 0.21 0.62 0.50 95 1015.2
20260503230827 59 267 1.7 9.6 0.26 0.62 0.50 95 1015.2
20260503230327 59 354 0.9 7.0 0.27 0.62 0.50 95 1015.2
20260503225826 59 37 0.9 7.0 0.27 0.61 0.50 95 1015.2
20260503225326 59 327 0.9 2.6 0.26 0.61 0.49 95 1015.2
20260503224826 59 94 0.0 5.2 0.25 0.60 0.48 95 1015.3
20260503224326 59 316 0.9 7.8 0.23 0.57 0.46 95 1015.2
20260503223825 58 94 0.9 7.8 0.20 0.55 0.43 95 1015.2
20260503223326 59 41 0.9 4.3 0.19 0.54 0.42 95 1015.1
20260503222827 58 310 0.9 4.3 0.17 0.51 0.39 95 1015.1
20260503222325 58 12 0.9 4.3 0.09 0.44 0.33 95 1015.1
20260503221826 59 93 0.9 5.2 0.08 0.43 0.31 94 1015.2
20260503221326 59 292 0.9 7.0 0.06 0.41 0.29 94 1015.1
20260503220826 59 40 1.7 7.0 0.02 0.36 0.25 94 1015.1
20260503220327 59 58 1.7 5.2 0.01 0.35 0.24 94 1015.1
20260503215826 59 290 0.9 4.3 0.00 0.35 0.23 94 1015.0
20260503215326 59 157 1.7 6.1 0.00 0.35 0.23 94 1015.0
20260503214826 58 81 2.6 7.0 0.00 0.35 0.23 95 1015.1
20260503214325 58 43 1.7 7.0 0.00 0.35 0.23 95 1015.1
20260503214046 58 50 0.9 7.0 0.01 0.35 0.23 95 1015.0
20260503213324 58 288 1.7 7.0 0.01 0.35 0.23 95 1015.0
20260503212824 58 337 1.7 6.1 0.01 0.36 0.23 95 1014.8
20260503212322 58 31 1.7 6.1 0.01 0.36 0.23 95 1014.8
20260503211821 58 339 1.7 7.0 0.02 0.36 0.23 95 1014.7
20260503211322 58 29 1.7 7.0 0.02 0.36 0.23 95 1014.8
20260503210821 58 44 1.7 6.1 0.02 0.36 0.23 95 1014.7
20260503210321 58 83 0.9 6.1 0.02 0.36 0.23 95 1014.7
20260503205807 58 51 0.0 5.2 0.02 0.36 0.23 96 1014.6
20260503205301 58 312 0.9 5.2 0.02 0.36 0.23 96 1014.6
20260503204800 58 349 0.9 4.3 0.02 0.36 0.23 96 1014.5
20260503204249 58 299 0.9 3.5 0.05 0.36 0.23 96 1014.5
20260503203749 58 285 0.9 4.3 0.05 0.35 0.22 96 1014.5
20260503203249 57 43 0.0 4.3 0.05 0.35 0.22 96 1014.4
20260503202747 57 337 0.0 0.9 0.05 0.35 0.22 95 1014.4
20260503202243 57 55 0.0 0.9 0.06 0.35 0.22 95 1014.3
20260503201744 57 63 0.0 0.9 0.05 0.35 0.21 95 1014.2
20260503201242 57 63 0.0 2.6 0.05 0.35 0.21 95 1014.4
20260503200743 57 339 0.0 2.6 0.05 0.35 0.21 95 1014.5
20260503200243 57 78 0.0 1.7 0.05 0.35 0.21 95 1014.3
20260503195744 57 301 0.0 2.6 0.05 0.35 0.21 95 1014.5
20260503195458 57 40 0.0 2.6 0.04 0.34 0.20 95 1014.4
20260503194959 57 22 0.9 5.2 0.04 0.34 0.20 95 1014.5
20260503194239 57 355 0.9 5.2 0.02 0.31 0.18 95 1014.6
20260503193742 57 40 0.9 5.2 0.01 0.31 0.18 95 1014.5
20260503193241 57 254 0.9 4.3 0.01 0.31 0.17 95 1014.4
20260503192741 57 28 1.7 6.1 0.01 0.31 0.17 95 1014.4
20260503192240 57 338 1.7 6.1 0.00 0.30 0.17 95 1014.5
20260503191741 57 347 1.7 7.0 0.00 0.30 0.17 95 1014.6
20260503191240 57 349 1.7 7.0 0.00 0.30 0.17 95 1014.5
20260503190734 57 29 0.9 3.5 0.00 0.30 0.17 95 1014.6
20260503190451 57 44 0.9 3.5 0.01 0.30 0.17 95 1014.7
20260503185721 57 39 0.9 3.5 0.01 0.30 0.17 95 1014.7
20260503185217 57 3 0.9 5.2 0.01 0.30 0.17 95 1014.7
20260503184710 58 51 1.7 6.1 0.01 0.30 0.17 95 1014.6
20260503184428 58 67 1.7 6.1 0.01 0.30 0.17 95 1014.7
20260503183659 58 14 0.9 6.1 0.01 0.30 0.17 95 1015.0
20260503183153 58 284 0.9 4.3 0.01 0.30 0.17 95 1015.1
20260503182648 58 28 0.9 4.3 0.01 0.30 0.17 95 1015.1
20260503182140 58 353 0.9 5.2 0.01 0.30 0.17 95 1015.1
20260503181635 58 55 0.9 5.2 0.02 0.30 0.17 95 1015.2
20260503181128 58 299 0.9 4.3 0.04 0.30 0.17 95 1015.2
20260503180623 58 23 0.0 4.3 0.06 0.30 0.17 95 1015.3
20260503180341 58 5 0.0 3.5 0.05 0.29 0.16 95 1015.2
20260503175609 58 322 0.0 2.6 0.06 0.29 0.16 95 1015.3
20260503175328 58 306 0.9 5.2 0.06 0.29 0.16 95 1015.3
20260503174557 58 39 0.9 5.2 0.06 0.29 0.16 95 1015.3
20260503174052 58 276 0.9 7.0 0.06 0.29 0.16 95 1015.3
20260503173545 58 343 1.7 7.0 0.06 0.29 0.16 95 1015.3
20260503173039 58 40 1.7 7.8 0.06 0.29 0.16 95 1015.2
20260503172533 58 294 2.6 7.8 0.07 0.29 0.16 95 1015.1
20260503172027 58 47 1.7 7.8 0.06 0.28 0.16 95 1015.1
20260503171521 58 10 2.6 7.8 0.06 0.28 0.14 95 1015.3
20260503171016 58 36 1.7 7.0 0.04 0.25 0.13 95 1015.5
20260503170509 58 8 1.7 7.8 0.04 0.24 0.11 95 1015.6
20260503150751 59 26 1.7 5.2 0.05 0.19 0.06 94 1016.5
20260503150508 59 78 1.7 5.2 0.05 0.19 0.06 94 1016.5
20260503140246 59 28 0.9 5.2 0.02 0.14 0.01 94 1016.9
20260503131151 59 342 0.0 3.5 0.01 0.13 0.13 92 1017.1
20260503130646 59 26 0.0 3.5 0.01 0.13 0.13 92 1017.2
20260503130139 59 40 0.9 3.5 0.01 0.13 0.13 92 1017.2
20260503110539 59 47 0.0 0.0 0.01 0.12 0.12 94 1017.6
20260503090504 60 292 0.0 3.5 0.03 0.05 0.05 91 1017.6
20260503081417 61 42 0.0 0.0 0.00 0.02 0.02 89 1017.4
20260503080917 61 349 0.0 0.0 0.00 0.02 0.02 89 1017.4
20260503080417 61 349 0.0 0.0 0.00 0.02 0.02 88 1017.4
20260503072408 62 316 0.0 0.0 0.00 0.02 0.02 85 1017.3
20260503071905 63 322 0.0 0.0 0.00 0.02 0.02 85 1017.2
20260503071403 63 38 0.0 0.0 0.00 0.02 0.02 84 1017.2
20260503070902 63 31 0.0 0.0 0.00 0.02 0.02 83 1017.2
20260503070622 63 239 0.0 0.0 0.00 0.02 0.02 82 1017.3
20260503054813 67 294 0.0 0.9 0.00 0.02 0.02 72 1017.4
20260503054309 67 294 0.0 0.9 0.00 0.02 0.02 71 1017.3
20260503053807 67 288 0.0 0.9 0.00 0.02 0.02 70 1017.3
20260503053306 68 291 0.0 0.9 0.00 0.02 0.02 69 1017.4
20260503052806 68 308 0.0 0.0 0.00 0.02 0.02 68 1017.4
20260503052305 68 339 0.0 0.9 0.00 0.02 0.02 67 1017.4
20260503052028 69 246 0.0 0.9 0.00 0.02 0.02 68 1017.4
20260503051300 68 318 0.0 3.5 0.00 0.02 0.02 70 1017.5
20260503050801 68 229 0.9 6.1 0.00 0.02 0.02 70 1017.7
20260503050258 68 299 0.0 6.1 0.00 0.02 0.02 68 1017.8
20260503050016 68 281 0.0 3.5 0.00 0.02 0.02 66 1017.7
20260503045259 68 339 0.9 5.2 0.00 0.02 0.02 66 1017.7
20260503044756 68 341 0.9 6.1 0.00 0.02 0.02 66 1017.7
20260503044517 68 55 0.9 6.1 0.00 0.02 0.02 66 1017.9
20260503044011 68 318 0.0 3.5 0.00 0.02 0.02 65 1017.9
20260503043238 68 45 0.9 4.3 0.00 0.02 0.02 65 1017.9
20260503043210 68 286 0.9 6.1 0.00 0.02 0.02 64 1017.9
20260503042226 69 323 0.9 6.1 0.00 0.02 0.02 63 1017.9
20260503041721 69 34 0.9 3.5 0.00 0.02 0.02 63 1017.9
20260503041217 69 21 0.9 4.3 0.00 0.02 0.02 62 1017.9
20260503040930 69 30 1.7 8.7 0.00 0.02 0.02 61 1017.9
20260503040202 70 31 2.6 9.6 0.00 0.02 0.02 60 1017.9
20260503035658 70 348 2.6 9.6 0.00 0.02 0.02 61 1018.0
20260503035150 70 33 1.7 8.7 0.00 0.02 0.02 62 1017.9
20260503034646 69 46 0.9 7.0 0.00 0.02 0.02 64 1017.9
20260503034138 69 40 0.9 5.2 0.00 0.02 0.02 63 1018.1
20260503033633 69 11 0.9 5.2 0.00 0.02 0.02 64 1018.4
20260503033126 69 268 0.9 5.2 0.00 0.02 0.02 62 1018.5
20260503032621 69 266 0.9 7.8 0.00 0.02 0.02 63 1018.5
20260503032116 69 331 0.9 7.8 0.00 0.02 0.02 63 1018.5
20260503031608 69 15 0.9 5.2 0.00 0.02 0.02 64 1018.6
20260503031102 69 83 0.9 5.2 0.00 0.02 0.02 63 1018.7
20260503031042 69 62 0.0 5.2 0.00 0.02 0.02 64 1018.7
20260503030051 69 313 0.9 7.0 0.00 0.02 0.02 63 1018.8
20260503025546 69 9 0.9 7.0 0.00 0.02 0.02 62 1018.8
20260503025038 69 310 1.7 5.2 0.00 0.02 0.02 65 1018.8
20260503024532 68 320 1.7 6.1 0.00 0.02 0.02 64 1019.0
20260503024026 68 51 0.9 6.1 0.00 0.02 0.02 64 1019.1
20260503023520 68 310 0.9 6.1 0.00 0.02 0.02 65 1019.2
20260503023016 68 321 0.9 3.5 0.00 0.02 0.02 65 1019.3
20260503022511 68 13 0.0 3.5 0.00 0.02 0.02 66 1019.4
20260503022010 67 298 0.0 1.7 0.00 0.02 0.02 69 1019.5
20260503021510 67 279 0.9 5.2 0.00 0.02 0.02 71 1019.7
20260503021008 67 282 0.9 10.4 0.00 0.02 0.02 70 1019.8
20260503020507 67 353 0.9 10.4 0.00 0.02 0.02 67 1019.8
20260503020223 67 300 1.7 6.1 0.00 0.02 0.02 68 1019.9
20260503015504 67 29 0.9 4.3 0.00 0.02 0.02 68 1019.9
20260503015004 67 216 0.0 1.7 0.00 0.02 0.02 72 1020.2
20260503014504 66 31 0.0 1.7 0.00 0.02 0.02 73 1020.2
20260503014004 65 31 0.0 2.6 0.00 0.02 0.02 75 1020.3
20260503013504 64 211 0.0 2.6 0.00 0.02 0.02 77 1020.4
20260503013004 63 122 0.0 0.9 0.00 0.02 0.02 78 1020.6
20260503012503 63 43 0.0 1.7 0.00 0.02 0.02 79 1020.6
20260503012002 63 145 0.0 1.7 0.00 0.02 0.02 78 1020.7
20260503011724 63 255 0.0 0.9 0.00 0.02 0.02 81 1020.8
20260503011228 62 302 0.0 0.9 0.00 0.02 0.02 82 1020.9
20260503010504 61 191 0.0 0.9 0.00 0.02 0.02 83 1021.0
20260503010002 61 191 0.0 0.9 0.00 0.02 0.02 86 1021.0
20260503005458 60 216 0.0 0.9 0.00 0.02 0.02 88 1021.1
20260503004950 59 216 0.0 0.9 0.00 0.02 0.02 87 1021.1
20260503004447 59 216 0.0 0.0 0.00 0.02 0.02 87 1021.2
20260503003939 59 216 0.0 0.9 0.00 0.02 0.02 88 1021.2
20260503003433 59 216 0.0 2.6 0.00 0.02 0.02 88 1021.2
20260503002927 59 216 0.0 2.6 0.00 0.02 0.02 88 1021.3
20260503002426 59 185 0.0 1.7 0.00 0.02 0.02 88 1021.3
20260503001926 59 227 0.0 1.7 0.00 0.02 0.02 88 1021.3
20260503001648 59 259 0.0 0.9 0.00 0.02 0.02 87 1021.4
20260503000926 59 301 0.0 0.9 0.00 0.02 0.02 88 1021.4